TimeEST,TemperatureF,Dew PointF,Humidity,Sea Level PressureIn,VisibilityMPH,Wind Direction,Wind SpeedMPH,Gust SpeedMPH,PrecipitationIn,Events,Conditions,WindDirDegrees,DateUTC
12:15 AM,42.8,35.6,76,30.14,10.0,North,4.6,-,N/A,,Overcast,360,2013-12-24 05:15:00
12:35 AM,41.0,33.8,76,30.15,10.0,North,8.1,-,N/A,,Overcast,350,2013-12-24 05:35:00
12:55 AM,41.0,32.0,70,30.14,10.0,North,6.9,-,N/A,,Mostly Cloudy,360,2013-12-24 05:55:00
1:15 AM,41.0,32.0,70,30.13,10.0,North,5.8,-,N/A,,Overcast,350,2013-12-24 06:15:00
1:35 AM,39.2,32.0,75,30.13,10.0,North,8.1,-,N/A,,Overcast,360,2013-12-24 06:35:00
1:55 AM,39.2,28.4,65,30.15,10.0,NNW,8.1,-,N/A,,Overcast,340,2013-12-24 06:55:00
2:15 AM,39.2,30.2,70,30.15,10.0,North,6.9,-,N/A,,Overcast,360,2013-12-24 07:15:00
2:35 AM,39.2,28.4,65,30.14,10.0,North,6.9,-,N/A,,Overcast,350,2013-12-24 07:35:00
2:55 AM,37.4,28.4,70,30.17,10.0,NNW,4.6,-,N/A,,Mostly Cloudy,340,2013-12-24 07:55:00
3:15 AM,37.4,26.6,65,30.16,10.0,North,9.2,-,N/A,,Mostly Cloudy,360,2013-12-24 08:15:00
3:35 AM,37.4,24.8,60,30.14,10.0,NNW,6.9,-,N/A,,Scattered Clouds,340,2013-12-24 08:35:00
3:55 AM,37.4,24.8,60,30.15,10.0,North,4.6,-,N/A,,Partly Cloudy,350,2013-12-24 08:55:00
4:15 AM,37.4,23.0,56,30.14,10.0,North,9.2,-,N/A,,Scattered Clouds,360,2013-12-24 09:15:00
4:35 AM,35.6,21.2,56,30.15,10.0,North,4.6,-,N/A,,Partly Cloudy,350,2013-12-24 09:35:00
4:55 AM,35.6,23.0,60,30.14,10.0,North,10.4,16.1,N/A,,Clear,360,2013-12-24 09:55:00
5:15 AM,35.6,23.0,60,30.14,10.0,North,6.9,-,N/A,,Clear,350,2013-12-24 10:15:00
5:35 AM,35.6,23.0,60,30.16,10.0,Calm,Calm,-,N/A,,Clear,0,2013-12-24 10:35:00
5:55 AM,35.6,23.0,60,30.16,10.0,North,5.8,-,N/A,,Clear,350,2013-12-24 10:55:00
6:15 AM,33.8,23.0,65,30.15,10.0,North,3.5,-,N/A,,Clear,350,2013-12-24 11:15:00
6:35 AM,33.8,23.0,65,30.15,10.0,NNW,3.5,-,N/A,,Clear,340,2013-12-24 11:35:00
6:55 AM,33.8,23.0,65,30.16,10.0,Calm,Calm,-,N/A,,Clear,0,2013-12-24 11:55:00
7:15 AM,33.8,23.0,65,30.14,10.0,North,3.5,-,N/A,,Clear,360,2013-12-24 12:15:00
7:35 AM,33.8,21.2,60,30.17,10.0,Calm,Calm,-,N/A,,Clear,0,2013-12-24 12:35:00
7:55 AM,33.8,19.4,56,30.17,10.0,North,4.6,-,N/A,,Clear,10,2013-12-24 12:55:00
8:15 AM,33.8,19.4,56,30.15,10.0,North,3.5,-,N/A,,Clear,360,2013-12-24 13:15:00
8:35 AM,33.8,19.4,56,30.16,10.0,North,4.6,-,N/A,,Clear,360,2013-12-24 13:35:00
8:55 AM,33.8,21.2,60,30.17,10.0,North,3.5,-,N/A,,Clear,350,2013-12-24 13:55:00
9:15 AM,33.8,21.2,60,30.17,10.0,NNW,4.6,-,N/A,,Clear,340,2013-12-24 14:15:00
9:35 AM,33.8,19.4,56,30.19,10.0,Calm,Calm,-,N/A,,Clear,0,2013-12-24 14:35:00
9:55 AM,33.8,21.2,60,30.19,10.0,Calm,Calm,-,N/A,,Clear,0,2013-12-24 14:55:00
10:15 AM,33.8,21.2,60,30.18,10.0,NNW,4.6,-,N/A,,Clear,330,2013-12-24 15:15:00
10:35 AM,35.6,21.2,56,30.17,10.0,North,6.9,-,N/A,,Clear,360,2013-12-24 15:35:00
10:55 AM,35.6,21.2,56,30.17,10.0,NNE,6.9,-,N/A,,Clear,20,2013-12-24 15:55:00
11:15 AM,37.4,19.4,48,30.15,10.0,North,3.5,-,N/A,,Clear,10,2013-12-24 16:15:00
11:35 AM,37.4,19.4,48,30.15,10.0,North,3.5,-,N/A,,Clear,350,2013-12-24 16:35:00
11:55 AM,39.2,19.4,45,30.13,10.0,North,6.9,-,N/A,,Clear,350,2013-12-24 16:55:00
12:15 PM,39.2,19.4,45,30.11,10.0,NNW,6.9,-,N/A,,Clear,340,2013-12-24 17:15:00
12:35 PM,39.2,19.4,45,30.11,10.0,NNW,5.8,-,N/A,,Clear,340,2013-12-24 17:35:00
12:55 PM,39.2,19.4,45,30.11,10.0,WNW,8.1,-,N/A,,Clear,300,2013-12-24 17:55:00
1:15 PM,39.2,19.4,45,30.11,10.0,NW,6.9,16.1,N/A,,Mostly Cloudy,320,2013-12-24 18:15:00
1:35 PM,41.0,21.2,45,30.11,10.0,NW,9.2,16.1,N/A,,Overcast,310,2013-12-24 18:35:00
1:55 PM,39.2,19.4,45,30.11,10.0,NNW,11.5,-,N/A,,Overcast,330,2013-12-24 18:55:00
2:15 PM,39.2,19.4,45,30.12,10.0,NW,12.7,18.4,N/A,,Overcast,310,2013-12-24 19:15:00
2:35 PM,39.2,19.4,45,30.13,10.0,WNW,10.4,-,N/A,,Overcast,300,2013-12-24 19:35:00
2:55 PM,39.2,19.4,45,30.14,10.0,WNW,13.8,-,N/A,,Overcast,300,2013-12-24 19:55:00
3:15 PM,39.2,19.4,45,30.15,10.0,NW,11.5,-,N/A,,Overcast,310,2013-12-24 20:15:00
3:35 PM,37.4,19.4,48,30.15,10.0,WNW,11.5,-,N/A,,Overcast,300,2013-12-24 20:35:00
3:55 PM,37.4,19.4,48,30.16,10.0,NW,9.2,16.1,N/A,,Overcast,310,2013-12-24 20:55:00
4:15 PM,37.4,19.4,48,30.17,10.0,NW,9.2,-,N/A,,Overcast,320,2013-12-24 21:15:00
4:35 PM,35.6,17.6,48,30.18,10.0,NW,8.1,-,N/A,,Mostly Cloudy,310,2013-12-24 21:35:00
4:55 PM,35.6,19.4,52,30.19,10.0,NW,4.6,-,N/A,,Partly Cloudy,310,2013-12-24 21:55:00
5:15 PM,35.6,19.4,52,30.20,10.0,NW,3.5,-,N/A,,Scattered Clouds,310,2013-12-24 22:15:00
5:35 PM,35.6,19.4,52,30.20,10.0,NW,5.8,-,N/A,,Mostly Cloudy,310,2013-12-24 22:35:00
5:55 PM,35.6,21.2,56,30.21,10.0,NW,3.5,-,N/A,,Overcast,310,2013-12-24 22:55:00
6:15 PM,33.8,21.2,60,30.21,10.0,WNW,3.5,-,N/A,,Mostly Cloudy,300,2013-12-24 23:15:00
6:35 PM,33.8,21.2,60,30.23,10.0,Calm,Calm,-,N/A,,Partly Cloudy,0,2013-12-24 23:35:00
6:55 PM,33.8,21.2,60,30.24,10.0,WNW,11.5,-,N/A,,Scattered Clouds,300,2013-12-24 23:55:00
7:15 PM,33.8,21.2,60,30.26,10.0,NW,8.1,18.4,N/A,,Mostly Cloudy,310,2013-12-25 00:15:00
7:35 PM,33.8,21.2,60,30.26,10.0,WNW,9.2,-,N/A,,Scattered Clouds,300,2013-12-25 00:35:00
7:55 PM,33.8,21.2,60,30.27,10.0,NW,12.7,19.6,N/A,,Partly Cloudy,310,2013-12-25 00:55:00
8:35 PM,32.0,19.4,60,30.29,10.0,NW,8.1,20.7,N/A,,Mostly Cloudy,320,2013-12-25 01:35:00
8:55 PM,30.2,19.4,64,30.29,10.0,WNW,13.8,19.6,N/A,,Scattered Clouds,300,2013-12-25 01:55:00
9:15 PM,30.2,17.6,60,30.30,10.0,NW,9.2,19.6,N/A,,Mostly Cloudy,320,2013-12-25 02:15:00
9:35 PM,30.2,17.6,60,30.31,10.0,NW,15.0,20.7,N/A,,Overcast,310,2013-12-25 02:35:00
9:55 PM,30.2,17.6,60,30.32,10.0,NW,10.4,20.7,N/A,,Overcast,320,2013-12-25 02:55:00
10:15 PM,28.4,19.4,69,30.33,10.0,NNW,10.4,16.1,N/A,,Overcast,340,2013-12-25 03:15:00
10:35 PM,28.4,21.2,74,30.34,10.0,NW,5.8,-,N/A,,Overcast,320,2013-12-25 03:35:00
10:55 PM,28.4,21.2,74,30.35,10.0,NW,10.4,16.1,N/A,,Mostly Cloudy,320,2013-12-25 03:55:00
11:15 PM,28.4,19.4,69,30.35,10.0,NW,6.9,-,N/A,,Partly Cloudy,320,2013-12-25 04:15:00
11:35 PM,28.4,17.6,64,30.37,10.0,NW,5.8,-,N/A,,Mostly Cloudy,320,2013-12-25 04:35:00
11:55 PM,28.4,17.6,64,30.37,10.0,NW,6.9,-,N/A,,Overcast,320,2013-12-25 04:55:00